This is the latest recevied weather packets stored in our database for station/object OE6PLD-13. If no packets are shown the sender has not sent any weather packets the latest 10 day(s).
| Time | Temp. | Humidity | Pressure | Rain* | Wind** | Luminosity | Snow |
|---|---|---|---|---|---|---|---|
| 1777527681 | 3.89° C | 60% | 1019.5 hPa | 0.76 mm | - | 152 W/m² | - |
| 1777527498 | 2.78° C | 63% | 1019.6 hPa | 0.76 mm | - | 149 W/m² | - |
| 1777527315 | 2.78° C | 62% | 1019.6 hPa | 0.76 mm | - | 133 W/m² | - |
| 1777527131 | 2.78° C | 65% | 1019.6 hPa | 0.76 mm | - | 110 W/m² | - |
| 1777526948 | 2.22° C | 65% | 1019.6 hPa | 0.76 mm | - | 119 W/m² | - |
| 1777526764 | 2.22° C | 66% | 1019.6 hPa | 0.76 mm | - | 109 W/m² | - |
| 1777526581 | 1.67° C | 66% | 1019.6 hPa | 0.76 mm | - | 102 W/m² | - |
| 1777526398 | 1.67° C | 67% | 1019.5 hPa | 0.76 mm | - | 92 W/m² | - |
| 1777526215 | 1.67° C | 67% | 1019.5 hPa | 0.76 mm | - | 87 W/m² | - |
| 1777526031 | 1.11° C | 69% | 1019.8 hPa | 0.76 mm | - | 78 W/m² | - |
| 1777525848 | 1.11° C | 69% | 1019.6 hPa | 0.76 mm | - | 78 W/m² | - |
| 1777525664 | 1.11° C | 70% | 1019.6 hPa | 0.76 mm | - | 80 W/m² | - |
| 1777525481 | 0.56° C | 70% | 1019.7 hPa | 0.76 mm | - | 79 W/m² | - |
| 1777525298 | 0.56° C | 71% | 1019.6 hPa | 0.76 mm | - | 79 W/m² | - |
| 1777525114 | 0.56° C | 72% | 1019.7 hPa | 0.76 mm | - | 71 W/m² | - |
| 1777524931 | 0.56° C | 72% | 1019.4 hPa | 0.76 mm | - | 70 W/m² | - |
| 1777524748 | 0° C | 73% | 1019.4 hPa | 0.76 mm | - | 65 W/m² | - |
| 1777524564 | 0° C | 73% | 1019.5 hPa | 0.76 mm | - | 55 W/m² | - |
| 1777524381 | 0° C | 73% | 1019.4 hPa | 0.76 mm | - | 55 W/m² | - |
| 1777524198 | 0° C | 74% | 1019.3 hPa | 0.76 mm | - | 49 W/m² | - |
| 1777524014 | -0.56° C | 75% | 1019.3 hPa | 0.76 mm | - | 45 W/m² | - |
| 1777523831 | -0.56° C | 75% | 1019.4 hPa | 0.76 mm | - | 39 W/m² | - |
| 1777523648 | -0.56° C | 75% | 1019.2 hPa | 0.76 mm | - | 33 W/m² | - |
| 1777523464 | -1.11° C | 75% | 1019.3 hPa | 0.76 mm | - | 28 W/m² | - |
| 1777523281 | -1.11° C | 76% | 1019.2 hPa | 0.76 mm | - | 23 W/m² | - |
* Rain latest hour (hover to see other rain measurements)
** Current wind speed in m/s (hover to see current wind gust speed)